If you wish to contribute or participate in the discussions about articles you are invited to join SKYbrary as a registered user

 Actions

Albacete

From SKYbrary Wiki

LEAB
Airport
ICAO: LEAB
Summary
Name Albacete
Region Europe
Territory Spain ES.gif
Location Albacete
Serving
Coordinates 38° 56' 57.985", -1° 51' 47.9773"
Runways
Designator Length Width Surface ROPS
9/27 2700 m8,858.268 ft 60 m196.85 ft ASP /


METAR
Observation LEAB 250900Z 14010KT 110V190 9999 FEW020 23/17 Q1026 NOSIG
Station Albacete / Los Llanos
Date/Time 25 September 2018 09:00:00
Wind direction 140°
Wind speed 10 kts
Lowest cloud amount few clouds
Temperature 23°C
Dew point 17°C
Humidity 69%
QNH 1026 hPa
Weather condition n/a


Albacete Airport

ICAO: LEAB IATA: ---

Description

Albacete Airport is an airport located at the Los Llanos Air Base, about 4 miles"miles" is not declared as a valid unit of measurement for this property. south of the city of Albacete, Spain.

Climatology

Dry-summer subtropical ”Mediterranean" climate (Köppen climate classification Csa) - characterized by hot, dry summers and mild winters. During the summer, subtropical high pressure cells dominate, making rainfall unlikely except for the occasional thunderstorm. In the winter, periodic storms bring rain (snow at higher elevations).

Maps

Terrain

Loading map...

Airport Layout

Loading map...



Accidents & Serious Incidents at or in vicinity of LEAB

None on SKYbrary